Hawthorne, CA

2:36 AM PST on December 14, 2017 (GMT -0800)
Northrop-Hawthorne Municipal

Weather History for KHHR - February, 2013

Change the Weather History Date:

Wednesday, February 27, 2013

  Actual Average Record
Temperature  
Mean Temperature 62 °F -  
Max Temperature 73 °F 65 °F 83 °F (1992)
Min Temperature 51 °F 50 °F 40 °F (1962)
Degree Days  
Heating Degree Days 3    
Growing Degree Days 12 (Base 50)    
Moisture  
Dew Point 29 °F    
Average Humidity 34    
Maximum Humidity 62    
Minimum Humidity 11    
Precipitation  
Precipitation 0.00 in - - ()
Sea Level Pressure  
Sea Level Pressure 30.20 in    
Wind  
Wind Speed 2 mph (West)    
Max Wind Speed 14 mph    
Max Gust Speed -    
Visibility 10 miles    
Events      
Averages and records for this station are not official NWS values.
T = Trace of Precipitation, MM = Missing Value Source: NWS Daily Summary

Daily Weather History Graph

Daily Weather History Graph

Search for Another Location

Airport or City:

Trip Planner

Search our weather history database for the weather conditions in past years. The results will help you decide how hot, cold, wet, or windy it might be!

Date:

Astronomy

Feb. 27, 2013 Rise Set
Actual Time 6:23 AM PST 5:48 PM PST
Civil Twilight 5:58 AM PST 6:13 PM PST
Nautical Twilight 5:29 AM PST 6:42 PM PST
Astronomical Twilight 5:00 AM PST 7:11 PM PST
Moon 8:05 PM PST (2/27) 7:09 AM PST (2/27)
Length of Visible Light 12h 14m
Length of Day
11h 24m
Waning Gibbous, 96% of the Moon is Illuminated
Feb 27
Waning Gibbous
Mar 4
Last Quarter
Mar 11
New
Mar 19
First Quarter
Mar 27
Full

Hourly Weather History & Observations

Time (PST) Temp. Dew Point Humidity Pressure Visibility Wind Dir Wind Speed Gust Speed Precip Events Conditions
12:53 AM 54.0 °F 37.0 °F 53% 30.13 in 10.0 mi NE 3.5 mph - N/A   Clear
1:53 AM 54.0 °F 33.1 °F 45% 30.13 in 10.0 mi Calm Calm - N/A   Clear
2:53 AM 54.0 °F 30.9 °F 41% 30.14 in 10.0 mi Calm Calm - N/A   Clear
3:53 AM 52.0 °F 28.9 °F 41% 30.15 in 10.0 mi Calm Calm - N/A   Clear
4:53 AM 51.1 °F 28.0 °F 41% 30.17 in 10.0 mi Calm Calm - N/A   Clear
5:53 AM 53.1 °F 21.0 °F 29% 30.17 in 10.0 mi Calm Calm - N/A   Clear
7:53 AM 57.9 °F 21.0 °F 24% 30.22 in 10.0 mi Calm Calm - N/A   Clear
8:53 AM 64.0 °F 19.9 °F 18% 30.23 in 10.0 mi Calm Calm - N/A   Clear
9:53 AM 66.0 °F 17.1 °F 15% 30.23 in 10.0 mi Calm Calm - N/A   Clear
10:53 AM 68.0 °F 15.1 °F 13% 30.23 in 10.0 mi Calm Calm - N/A   Clear
11:53 AM 70.0 °F 14.0 °F 12% 30.22 in 10.0 mi Calm Calm - N/A   Clear
12:53 PM 73.0 °F 16.0 °F 11% 30.20 in 10.0 mi WSW 10.4 mph - N/A   Clear
1:53 PM 73.0 °F 16.0 °F 11% 30.18 in 10.0 mi WSW 10.4 mph - N/A   Clear
2:53 PM 71.1 °F 17.1 °F 13% 30.17 in 10.0 mi WSW 11.5 mph - N/A   Clear
3:53 PM 68.0 °F 23.0 °F 18% 30.18 in 10.0 mi WSW 13.8 mph - N/A   Clear
4:53 PM 64.9 °F 36.0 °F 34% 30.19 in 10.0 mi WSW 10.4 mph - N/A   Clear
5:53 PM 62.1 °F 44.1 °F 52% 30.19 in 10.0 mi Calm Calm - N/A   Clear
6:53 PM 62.1 °F 44.1 °F 52% 30.20 in 10.0 mi Calm Calm - N/A   Clear
7:53 PM 61.0 °F 44.1 °F 54% 30.22 in 10.0 mi Calm Calm - N/A   Clear
8:53 PM 59.0 °F 44.1 °F 58% 30.25 in 10.0 mi Calm Calm - N/A   Clear
9:53 PM 57.0 °F 44.1 °F 62% 30.26 in 10.0 mi Calm Calm - N/A   Clear
11:53 PM 54.0 °F 41.0 °F 62% 30.27 in 10.0 mi NW 3.5 mph - N/A   Clear